When you browse on this site, cookies collect data to enhance your experience and personalize the content and advertising you see.
Visit our Privacy Policy to learn more. By continuing to use the site, you agree to this use of cookies and data.

Stündliche Wetter San Agustín Tlaxiaca

Heute, 7 August, Freitag

Zeit Temperatur Niederschläge Wind Luftdruck Luftfeuchtigkeit
00:00 +14°C° 0 mm 1 m/S 574 mmHg 92%
01:00 +14°C° 0 mm 1 m/S 574 mmHg 91%
02:00 +14°C° 0 mm 1 m/S 574 mmHg 91%
03:00 +14°C° 0 mm 1 m/S 574 mmHg 89%
04:00 +14°C° 0 mm 1 m/S 574 mmHg 87%
05:00 +15°C° 0 mm 1 m/S 575 mmHg 85%
06:00 +15°C° 0 mm 1 m/S 575 mmHg 80%
07:00 +16°C° 0 mm 2 m/S 576 mmHg 76%
08:00 +17°C° 0 mm 2 m/S 576 mmHg 71%
09:00 +18°C° 0 mm 2 m/S 577 mmHg 67%
10:00 +19°C° 0 mm 3 m/S 577 mmHg 62%
11:00 +20°C° 0 mm 3 m/S 577 mmHg 58%
12:00 +21°C° 0.3 mm 4 m/S 577 mmHg 57%
13:00 +21°C° 0.3 mm 5 m/S 577 mmHg 57%
14:00 +22°C° 0.3 mm 6 m/S 576 mmHg 56%
15:00 +21°C° 0.2 mm 5 m/S 576 mmHg 59%
16:00 +20°C° 0.2 mm 5 m/S 576 mmHg 63%
17:00 +19°C° 0.2 mm 5 m/S 575 mmHg 67%
18:00 +17°C° 0 mm 4 m/S 575 mmHg 75%
19:00 +16°C° 0 mm 3 m/S 575 mmHg 83%
20:00 +14°C° 0 mm 2 m/S 575 mmHg 91%
21:00 +14°C° 0 mm 2 m/S 575 mmHg 91%
22:00 +14°C° 0 mm 2 m/S 575 mmHg 91%
23:00 +13°C° 0 mm 1 m/S 575 mmHg 91%

Morgen, 8 August, Samstag

Zeit Temperatur Niederschläge Wind Luftdruck Luftfeuchtigkeit
00:00 +13°C° 0 mm 1 m/S 575 mmHg 91%
01:00 +13°C° 0 mm 1 m/S 574 mmHg 90%
02:00 +13°C° 0 mm 1 m/S 574 mmHg 90%
03:00 +13°C° 0 mm 1 m/S 574 mmHg 90%
04:00 +13°C° 0 mm 1 m/S 574 mmHg 89%
05:00 +12°C° 0 mm 1 m/S 575 mmHg 89%
06:00 +13°C° 0 mm 1 m/S 575 mmHg 85%
07:00 +14°C° 0 mm 1 m/S 576 mmHg 81%
08:00 +15°C° 0 mm 2 m/S 576 mmHg 77%
09:00 +17°C° 0.1 mm 2 m/S 577 mmHg 72%
10:00 +18°C° 0.1 mm 2 m/S 577 mmHg 67%
11:00 +20°C° 0.1 mm 3 m/S 578 mmHg 63%
12:00 +19°C° 0.7 mm 3 m/S 577 mmHg 66%
13:00 +19°C° 0.7 mm 4 m/S 576 mmHg 69%
14:00 +19°C° 0.7 mm 4 m/S 576 mmHg 72%
15:00 +18°C° 0.2 mm 4 m/S 576 mmHg 74%
16:00 +17°C° 0.2 mm 4 m/S 575 mmHg 76%
17:00 +17°C° 0.2 mm 4 m/S 575 mmHg 78%
18:00 +15°C° 0 mm 4 m/S 575 mmHg 81%
19:00 +16°C° 0 mm 3 m/S 576 mmHg 84%
20:00 +14°C° 0 mm 3 m/S 576 mmHg 87%
21:00 +15°C° 0 mm 2 m/S 576 mmHg 88%
22:00 +14°C° 0 mm 2 m/S 576 mmHg 90%
23:00 +14°C° 0 mm 2 m/S 576 mmHg 92%

übermorgen, 9 August, Sonntag

Zeit Temperatur Niederschläge Wind Luftdruck Luftfeuchtigkeit
00:00 +14°C° 0 mm 2 m/S 576 mmHg 92%
01:00 +14°C° 0 mm 2 m/S 575 mmHg 91%
02:00 +14°C° 0 mm 2 m/S 575 mmHg 91%
03:00 +14°C° 0 mm 2 m/S 575 mmHg 91%
04:00 +13°C° 0 mm 2 m/S 575 mmHg 92%
05:00 +13°C° 0 mm 2 m/S 575 mmHg 92%
06:00 +14°C° 0 mm 2 m/S 576 mmHg 88%
07:00 +14°C° 0 mm 2 m/S 576 mmHg 85%
08:00 +15°C° 0 mm 2 m/S 577 mmHg 82%
09:00 +16°C° 0 mm 2 m/S 577 mmHg 78%
10:00 +17°C° 0 mm 2 m/S 577 mmHg 74%
11:00 +18°C° 0 mm 2 m/S 577 mmHg 70%
12:00 +18°C° 0.4 mm 3 m/S 577 mmHg 70%
13:00 +18°C° 0.4 mm 3 m/S 577 mmHg 71%
14:00 +19°C° 0.4 mm 3 m/S 576 mmHg 71%
15:00 +18°C° 0.6 mm 3 m/S 576 mmHg 75%
16:00 +17°C° 0.6 mm 3 m/S 575 mmHg 79%
17:00 +16°C° 0.6 mm 3 m/S 575 mmHg 84%
18:00 +16°C° 1.4 mm 3 m/S 575 mmHg 87%
19:00 +15°C° 1.4 mm 2 m/S 575 mmHg 90%
20:00 +15°C° 1.4 mm 2 m/S 575 mmHg 94%
21:00 +14°C° 3 mm 2 m/S 576 mmHg 94%
22:00 +14°C° 3 mm 2 m/S 576 mmHg 95%
23:00 +14°C° 3 mm 1 m/S 576 mmHg 96%

10 August, Montag

Zeit Temperatur Niederschläge Wind Luftdruck Luftfeuchtigkeit
00:00 +14°C° 0.5 mm 1 m/S 575 mmHg 95%
01:00 +14°C° 0.5 mm 1 m/S 575 mmHg 95%
02:00 +14°C° 0.5 mm 1 m/S 575 mmHg 94%
03:00 +13°C° 0 mm 1 m/S 575 mmHg 94%
04:00 +13°C° 0 mm 1 m/S 574 mmHg 94%
05:00 +13°C° 0 mm 1 m/S 574 mmHg 94%
06:00 +14°C° 0 mm 1 m/S 575 mmHg 89%
07:00 +15°C° 0 mm 1 m/S 576 mmHg 84%
08:00 +16°C° 0 mm 1 m/S 577 mmHg 79%
09:00 +18°C° 0.1 mm 1 m/S 577 mmHg 75%
10:00 +18°C° 0.1 mm 2 m/S 577 mmHg 71%
11:00 +19°C° 0.1 mm 2 m/S 578 mmHg 67%
12:00 +19°C° 0.8 mm 3 m/S 577 mmHg 68%
13:00 +19°C° 0.8 mm 3 m/S 576 mmHg 69%
14:00 +19°C° 0.8 mm 3 m/S 576 mmHg 71%
15:00 +18°C° 0.9 mm 3 m/S 575 mmHg 76%
16:00 +18°C° 0.9 mm 3 m/S 575 mmHg 80%
17:00 +17°C° 0.9 mm 4 m/S 574 mmHg 85%
18:00 +16°C° 0.4 mm 3 m/S 574 mmHg 87%
19:00 +16°C° 0.4 mm 3 m/S 575 mmHg 89%
20:00 +15°C° 0.4 mm 2 m/S 575 mmHg 91%
21:00 +15°C° 0.2 mm 2 m/S 575 mmHg 91%
22:00 +15°C° 0.2 mm 2 m/S 575 mmHg 91%
23:00 +14°C° 0.2 mm 1 m/S 575 mmHg 91%

11 August, Dienstag

Zeit Temperatur Niederschläge Wind Luftdruck Luftfeuchtigkeit
00:00 +14°C° 0 mm 1 m/S 575 mmHg 92%
01:00 +14°C° 0 mm 1 m/S 574 mmHg 93%
02:00 +13°C° 0 mm 1 m/S 574 mmHg 93%
03:00 +13°C° 0 mm 1 m/S 574 mmHg 93%
04:00 +13°C° 0 mm 1 m/S 574 mmHg 92%
05:00 +13°C° 0 mm 1 m/S 573 mmHg 91%
06:00 +14°C° 0 mm 1 m/S 574 mmHg 84%
07:00 +15°C° 0 mm 1 m/S 575 mmHg 76%
08:00 +16°C° 0 mm 1 m/S 576 mmHg 69%
09:00 +19°C° 0 mm 1 m/S 576 mmHg 63%
10:00 +20°C° 0 mm 2 m/S 577 mmHg 57%
11:00 +21°C° 0 mm 3 m/S 577 mmHg 51%
12:00 +21°C° 0.3 mm 3 m/S 577 mmHg 56%
13:00 +21°C° 0.3 mm 4 m/S 576 mmHg 61%
14:00 +20°C° 0.3 mm 4 m/S 575 mmHg 67%
15:00 +19°C° 0.6 mm 4 m/S 575 mmHg 72%
16:00 +18°C° 0.6 mm 4 m/S 574 mmHg 77%
17:00 +17°C° 0.6 mm 4 m/S 573 mmHg 82%
18:00 +15°C° 0.1 mm 4 m/S 574 mmHg 85%
19:00 +14°C° 0.1 mm 3 m/S 574 mmHg 88%
20:00 +14°C° 0.1 mm 2 m/S 574 mmHg 91%
21:00 +14°C° 0.2 mm 2 m/S 574 mmHg 91%
22:00 +14°C° 0.2 mm 2 m/S 574 mmHg 91%
23:00 +14°C° 0.2 mm 2 m/S 574 mmHg 90%

12 August, Mittwoch

Zeit Temperatur Niederschläge Wind Luftdruck Luftfeuchtigkeit
00:00 +14°C° 0 mm 1 m/S 574 mmHg 92%
01:00 +14°C° 0 mm 1 m/S 573 mmHg 93%
02:00 +13°C° 0 mm 1 m/S 573 mmHg 94%
03:00 +13°C° 0 mm 1 m/S 573 mmHg 94%
04:00 +13°C° 0 mm 1 m/S 573 mmHg 93%
05:00 +13°C° 0 mm 1 m/S 573 mmHg 92%
06:00 +14°C° 0 mm 1 m/S 574 mmHg 85%
07:00 +15°C° 0 mm 1 m/S 575 mmHg 79%
08:00 +15°C° 0 mm 0 m/S 576 mmHg 72%
09:00 +19°C° 0 mm 1 m/S 576 mmHg 67%
10:00 +19°C° 0 mm 2 m/S 577 mmHg 61%
11:00 +21°C° 0 mm 2 m/S 577 mmHg 56%
12:00 +21°C° 0.7 mm 3 m/S 576 mmHg 60%
13:00 +20°C° 0.7 mm 4 m/S 576 mmHg 63%
14:00 +20°C° 0.7 mm 4 m/S 575 mmHg 67%
15:00 +19°C° 1 mm 4 m/S 575 mmHg 72%
16:00 +18°C° 1 mm 4 m/S 574 mmHg 78%
17:00 +17°C° 1 mm 4 m/S 574 mmHg 83%
18:00 +16°C° 0.3 mm 3 m/S 574 mmHg 85%
19:00 +14°C° 0.3 mm 3 m/S 574 mmHg 87%
20:00 +15°C° 0.3 mm 2 m/S 574 mmHg 89%
21:00 +14°C° 0 mm 2 m/S 574 mmHg 90%
22:00 +14°C° 0 mm 1 m/S 574 mmHg 91%
23:00 +14°C° 0 mm 1 m/S 575 mmHg 92%
Mehr zeigen